Other Public Products
Issued by NWS Charleston, SC

Home | Current Version | Previous Version | Text Only | Print | Product List | Glossary On
Versions: 1 2 3 4 5 6 7 8 9 10 11 12 13 14 15 16 17 18 19 20 21 22 23 24 25 26 27 28 29 30 31 32 33 34 35 36 37 38 39 40 41 42 43 44 45 46 47 48 49 50
000
FPUS82 KCHS 231027
OPUCHS

TEST...KCHS/KSAV Gateway Observations...TEST
National Weather Service Charleston SC
600 AM EDT THU MAR 23 2017

NOTE: "fair" indicates few or no clouds below 12,000 feet with no
significant weather and/or obstructions to visibility.

SCZ050-WAZ558-NCZ071-TXZ119-213-PAZ071-DCZ001-FLZ074-172-MI076-
NYZ176-178-MAZ016-IL014-TNZ027-NJZ106-GAZ044-MD014-231100-

...Gateway Observations for Charleston International...

CITY           SKY/WX    TMP DP  RH WIND       PRES   REMARKS
Chas Airport   CLEAR     49  37  63 NE12      30.38R
Seattle        CLOUDY    43  39  86 S13       30.08S
Charlotte      CLEAR     40  17  39 NE8       30.46R WCI  34
Dallas DFW     PTCLDY    67  62  84 S16       30.00F
Dallas Love    PTCLDY    66  61  84 S12       30.03F
Philladelphia  CLEAR     24   5  44 NW7       30.59R WCI  16
Wash National  CLEAR     30   8  39 E7        30.60R WCI  23
Baltimore      CLEAR     27   4  37 N3        30.59R
Miami          PTCLDY    66  61  84 W3        30.11R
Detroit        PTCLDY    24  16  71 E5        30.53F WCI  18
Newark         PTCLDY    23   6  48 W8        30.54R WCI  14
Laguardia      CLEAR     26   7  44 NW13      30.52R WCI  15
J F K          CLEAR     24   4  42 NW8       30.54R WCI  15
Boston Logan   CLEAR     19  -4  36 NW10      30.42R WCI   7
Ft. Lauderdale MOCLDY    65  60  84 NW3       30.10R
Chicago O`Hare CLOUDY    33  19  56 SE14      30.41F WCI  23
Chicago Midway MOCLDY    32  20  61 SE8       30.43S WCI  25
Houston Bush   PTCLDY    64  63  96 SE3       30.11S
Houston Hobby  PTCLDY    65  63  93 SE3       30.11S
Nashville      CLEAR     38  26  62 NE6       30.31R WCI  33
Atlanta        MOCLDY    53  31  42 E14       30.32R

$$

GAZ044-118-TXZ119-213-NCZ071-DCZ001-MDZ014-506-PAZ021-071-NJZ106-
NYZ176-178-MAZ106-OHZ011-021-055-MIZ076-KYZ091-ILZ014-INZ047-
MNZ060-ONZ431-231100-

...Gateway Observations for Savannah International...

CITY           SKY/WX    TMP DP  RH WIND       PRES   REMARKS
Savannah Arpt  PTCLDY    55  43  63 E12       30.32R
Atlanta        MOCLDY    53  31  42 E14       30.32R
Charlotte      CLEAR     40  17  39 NE8       30.46R WCI  34
Dallas DFW     PTCLDY    67  62  84 S16       30.00F
Houston Bush   PTCLDY    64  63  96 SE3       30.11S
Wash National  CLEAR     30   8  39 E7        30.60R WCI  23
Wash Dulles    CLEAR     24  10  55 CALM      30.58R
Baltimore      CLEAR     27   4  37 N3        30.59R
Philadelphia   CLEAR     24   5  44 NW7       30.59R WCI  16
Newark         PTCLDY    23   6  48 W8        30.54R WCI  14
Laguardia      CLEAR     26   7  44 NW13      30.52R WCI  15
J F K          CLEAR     24   4  42 NW8       30.54R WCI  15
Boston         CLEAR     19  -4  36 NW10      30.42R WCI   7
Pittsburg      CLEAR     18  12  77 CALM      30.53R
Akron          CLEAR     20  10  65 E7        30.52R WCI  11
Cleveland      CLEAR     19  12  74 S5        30.57S WCI  12
Cincinnati     PTCLDY    29  17  61 E10       30.42F WCI  20
Columbus       CLEAR     23  15  70 E8        30.51S WCI  14
Detroit        PTCLDY    24  16  71 E5        30.53F WCI  18
Chicago O`Hare CLOUDY    33  19  56 SE14      30.41F WCI  23
Minneapolis    CLOUDY    37  21  52 SE15      30.19F WCI  28
Indianapolis   CLOUDY    29  19  66 E12       30.41F WCI  19
Toronto Canada PTCLDY    18  10  73 SW3       30.56R

$$




USA.gov is the U.S. government's official web portal to all federal, state and local government web resources and services.